User: anonymous   Login
Location: Newark
(42.7133°N, 87.7910°W)
Time: 04:02:21
(UTC+00:00)
Language:

Envisat - Orbit

View from above orbital plane
View from above orbital plane
View from above satellite
View from above satellite

Ground track
Ground track

The orbit data is extracted from the following two-line orbital elements,

1 27386U 02009A   19261.66549760 -.00000017  00000-0  79694-5 0  9998
2 27386  98.1469 277.9747 0001254  86.6267  10.8676 14.37957327919415
Epoch (UTC): 18 September 2019 15:58:18
Eccentricity: 0.0001254
inclination: 98.1469°
perigee height: 764 km
apogee height: 766 km
right ascension of ascending node: 277.9747°
argument of perigee: 86.6267°
revolutions per day: 14.37957327
mean anomaly at epoch: 10.8676°
orbit number at epoch: 91941

The dashed part of the orbit path shows where the satellite is in the earth's shadow,  

DLR